Tracking 27422 objects as of 30-May-2023
HD Live streaming from Space Station
objects crossing your sky now

CUBEBUG 2

Track CUBEBUG 2 now!
10-day predictions
CUBEBUG 2 is classified as:


NORAD ID: 39440
Int'l Code: 2013-066AA
Perigee: 584.5 km
Apogee: 692.9 km
Inclination: 97.8 °
Period: 97.3 minutes
Semi major axis: 7009 km
RCS: Unknown
Launch date: November 21, 2013
Source: Argentina (ARGN)
Launch site: Orenburg, Russia (OREN)

Uplink (MHz):
Downlink (MHz): 437.445
Beacon (MHz):
Mode: 1k2AFSK 9k6FSK
Call sign: CUBEB2-6
Status: Active

Your satellite tracking list
Your tracking list is empty




NASA's NSSDC Master Catalog

Two Line Element Set (TLE):
1 39440U 13066AA  23149.83923182  .00002890  00000-0  37624-3 0  9995
2 39440  97.7712  99.1931 0077322  86.9979 274.0078 14.79290125511449
Source of the keplerian elements: Caltech